Total_Precipitation_Accumulation
0.03 0.03 0.04 0.04 0.05 0.05 0.05 0.04 0.04 0.03 0.03 0.02 0.03 0.03 0.03 0.03 0.01 0.00 0.00 0.00 0.00 0.00 0.00 0.00 0.00 0.00 0.00 0.00 0.00 0.00 0.00 0.00 0.00 0.00 0.00 0.00 0.00 0.00 0.00 0.00 0.00 0.00 0.00 0.00 0.00
0.02 0.02 0.03 0.04 0.05 0.04 0.04 0.05 0.04 0.03 0.03 0.03 0.04 0.04 0.04 0.04 0.01 0.00 0.00 0.00 0.00 0.00 0.00 0.00 0.00 0.01 0.00 0.00 0.00 0.00 0.00 0.00 0.00 0.00 0.00 0.00 0.00 0.00 0.00 0.00 0.00 0.00 0.00 0.00 0.00
0.03 0.03 0.03 0.04 0.05 0.05 0.05 0.06 0.06 0.04 0.03 0.04 0.05 0.07 0.08 0.06 0.01 0.00 0.00 0.00 0.00 0.00 0.00 0.00 0.00 0.03 0.02 0.01 0.00 0.00 0.00 0.00 0.00 0.00 0.00 0.00 0.00 0.00 0.00 0.00 0.00 0.00 0.00 0.00 0.00
0.07 0.06 0.05 0.04 0.05 0.05 0.06 0.06 0.08 0.09 0.07 0.04 0.04 0.08 0.11 0.07 0.03 0.00 0.00 0.00 0.00 0.00 0.00 0.00 0.00 0.02 0.02 0.01 0.00 0.00 0.00 0.00 0.00 0.00 0.00 0.00 0.00 0.00 0.00 0.00 0.00 0.00 0.00 0.00 0.00
0.07 0.10 0.13 0.08 0.07 0.07 0.06 0.05 0.06 0.08 0.08 0.05 0.04 0.12 0.18 0.08 0.02 0.00 0.00 0.00 0.00 0.00 0.02 0.01 0.01 0.01 0.01 0.00 0.01 0.00 0.00 0.00 0.00 0.00 0.00 0.00 0.00 0.00 0.00 0.00 0.00 0.00 0.00 0.00 0.00
0.12 0.15 0.13 0.16 0.17 0.14 0.07 0.06 0.08 0.12 0.11 0.06 0.06 0.13 0.17 0.06 0.00 0.00 0.00 0.00 0.00 0.00 0.01 0.04 0.04 0.04 0.02 0.01 0.00 0.00 0.00 0.00 0.00 0.00 0.00 0.00 0.00 0.00 0.00 0.00 0.00 0.00 0.00 0.00 0.00
0.11 0.15 0.23 0.23 0.13 0.12 0.19 0.21 0.14 0.07 0.09 0.08 0.10 0.16 0.16 0.03 0.00 0.00 0.00 0.00 0.00 0.00 0.00 0.00 0.02 0.07 0.05 0.02 0.00 0.00 0.01 0.00 0.00 0.00 0.00 0.00 0.00 0.00 0.00 0.00 0.00 0.00 0.00 0.00 0.00
0.14 0.14 0.20 0.21 0.29 0.30 0.20 0.12 0.21 0.25 0.17 0.09 0.09 0.17 0.14 0.00 0.00 0.00 0.00 0.00 0.00 0.00 0.00 0.00 0.00 0.02 0.03 0.04 0.02 0.01 0.03 0.01 0.00 0.00 0.00 0.00 0.00 0.00 0.00 0.00 0.00 0.00 0.00 0.00 0.00
0.22 0.23 0.23 0.25 0.27 0.29 0.29 0.27 0.19 0.15 0.22 0.27 0.29 0.25 0.08 0.00 0.00 0.00 0.00 0.00 0.00 0.00 0.00 0.01 0.05 0.08 0.08 0.10 0.08 0.04 0.01 0.00 0.00 0.00 0.00 0.00 0.00 0.00 0.00 0.00 0.00 0.00 0.00 0.00 0.00
0.30 0.31 0.34 0.33 0.36 0.50 0.48 0.39 0.29 0.29 0.21 0.31 0.46 0.58 0.12 0.00 0.00 0.00 0.00 0.00 0.01 0.02 0.02 0.04 0.08 0.09 0.14 0.14 0.08 0.00 0.00 0.00 0.00 0.00 0.00 0.00 0.00 0.00 0.00 0.00 0.00 0.00 0.00 0.00 0.00
0.34 0.42 0.47 0.48 0.51 0.67 0.84 0.82 0.86 0.75 0.60 0.26 0.18 0.10 0.00 0.00 0.00 0.00 0.00 0.00 0.00 0.05 0.06 0.05 0.11 0.08 0.05 0.06 0.01 0.01 0.00 0.00 0.00 0.00 0.00 0.00 0.00 0.00 0.00 0.00 0.00 0.00 0.00 0.00 0.00
0.47 0.53 0.65 0.71 0.66 0.69 0.77 0.64 0.47 0.64 0.39 0.13 0.05 0.03 0.00 0.00 0.00 0.00 0.02 0.05 0.02 0.02 0.01 0.10 0.14 0.02 0.01 0.03 0.04 0.04 0.02 0.00 0.00 0.00 0.00 0.00 0.00 0.00 0.00 0.00 0.00 0.00 0.00 0.00 0.00
0.65 0.66 0.77 0.83 0.93 0.86 0.63 0.42 0.36 0.45 0.51 0.11 0.05 0.03 0.01 0.01 0.01 0.00 0.01 0.06 0.04 0.01 0.01 0.04 0.08 0.00 0.03 0.03 0.05 0.03 0.03 0.01 0.01 0.00 0.01 0.00 0.00 0.00 0.00 0.00 0.00 0.00 0.00 0.00 0.00
0.74 0.82 0.95 0.93 1.17 0.78 0.73 0.54 0.45 0.84 1.13 0.27 0.02 0.03 0.01 0.04 0.05 0.00 0.00 0.04 0.11 0.03 0.01 0.04 0.00 0.03 0.06 0.05 0.06 0.07 0.01 0.03 0.03 0.09 0.06 0.02 0.05 0.00 0.00 0.00 0.00 0.00 0.00 0.00 0.00
1.03 1.05 1.16 1.14 0.78 0.81 0.65 0.58 0.80 1.49 2.08 0.29 0.00 0.00 0.00 0.09 0.06 0.01 0.01 0.07 0.11 0.09 0.11 0.06 0.00 0.01 0.05 0.04 0.06 0.05 0.05 0.07 0.05 0.08 0.07 0.05 0.06 0.01 0.00 0.00 0.00 0.00 0.00 0.00 0.00
0.96 1.29 1.11 0.97 0.91 0.56 0.55 1.18 1.72 2.21 2.05 0.28 0.10 0.06 0.05 0.02 0.00 0.04 0.14 0.12 0.15 0.14 0.25 0.09 0.00 0.01 0.02 0.02 0.07 0.05 0.10 0.15 0.19 0.20 0.60 0.21 0.07 0.04 0.00 0.00 0.00 0.00 0.00 0.00 0.00
1.29 1.31 1.35 0.90 0.94 0.73 1.14 2.16 2.55 2.02 0.62 0.28 0.11 0.17 0.16 0.03 0.01 0.07 0.21 0.30 0.16 0.53 0.48 0.30 0.06 0.01 0.05 0.09 0.12 0.29 0.36 0.69 0.91 0.94 0.78 0.08 0.05 0.03 0.00 0.00 0.00 0.00 0.00 0.00 0.00
1.40 1.45 1.14 1.01 0.82 1.14 1.84 2.38 2.52 0.60 0.18 0.15 0.13 0.14 0.21 0.21 0.10 0.07 0.17 0.42 0.30 0.25 0.47 0.30 0.18 0.03 0.06 0.08 0.14 0.27 0.72 0.75 0.55 0.53 0.21 0.03 0.02 0.00 0.00 0.00 0.00 0.00 0.00 0.00 0.00
1.27 1.34 1.39 0.99 0.80 1.48 2.28 2.48 1.27 0.24 0.07 0.05 0.07 0.25 0.18 0.39 0.50 0.24 0.13 0.18 0.54 0.54 0.73 0.68 0.18 0.04 0.02 0.01 0.05 0.12 0.44 0.53 0.26 0.15 0.16 0.08 0.02 0.00 0.00 0.00 0.00 0.00 0.00 0.00 0.00
1.48 1.48 1.61 1.21 1.18 1.74 2.34 1.65 0.47 0.07 0.06 0.06 0.20 0.24 0.44 0.26 0.52 0.71 0.33 0.06 0.11 0.57 0.88 0.70 0.51 0.07 0.07 0.10 0.07 0.05 0.10 0.33 0.90 0.83 0.25 0.05 0.02 0.00 0.00 0.00 0.00 0.00 0.00 0.00 0.00
1.79 1.87 1.38 1.52 1.71 2.18 2.08 0.70 0.12 0.03 0.11 0.21 0.13 0.19 0.24 0.44 0.64 0.72 0.64 0.16 0.07 0.15 0.64 1.11 0.75 0.17 0.19 0.31 0.16 0.16 0.19 0.31 0.65 0.45 0.27 0.14 0.01 0.00 0.00 0.00 0.00 0.00 0.00 0.00 0.00
2.05 1.96 1.49 1.83 2.64 2.15 1.02 0.16 0.06 0.04 0.10 0.22 0.24 0.15 0.10 0.21 0.67 0.80 0.49 0.42 0.33 0.22 0.17 0.52 1.10 0.46 0.24 0.28 0.25 0.18 0.18 0.30 0.61 0.50 0.12 0.14 0.08 0.01 0.01 0.01 0.00 0.00 0.00 0.00 0.00
2.15 1.47 1.72 1.42 2.06 1.44 0.56 0.17 0.11 0.06 0.14 0.24 0.16 0.08 0.06 0.18 0.73 0.60 0.63 0.46 0.56 0.47 0.39 0.33 0.77 0.85 0.48 0.59 0.47 0.51 0.18 0.16 0.19 0.12 0.18 0.13 0.08 0.01 0.01 0.01 0.00 0.00 0.00 0.00 0.00
2.39 1.76 2.18 2.17 1.06 0.55 0.53 0.38 0.28 0.11 0.11 0.18 0.18 0.16 0.24 0.16 0.31 0.44 0.31 0.33 0.35 0.49 0.42 0.54 0.72 0.71 0.54 0.99 1.09 0.97 0.74 0.35 0.37 0.23 0.12 0.10 0.04 0.08 0.03 0.01 0.00 0.00 0.00 0.00 0.00
2.35 1.49 1.47 1.75 1.14 0.55 0.72 0.69 0.23 0.15 0.13 0.20 0.24 0.20 0.35 0.44 0.13 0.17 0.14 0.34 0.42 0.61 0.51 0.81 0.85 0.48 0.14 0.09 0.27 0.41 0.65 0.56 0.56 0.32 0.18 0.05 0.00 0.02 0.05 0.04 0.01 0.00 0.00 0.00 0.00
1.74 0.96 0.95 0.70 0.47 0.56 0.54 0.37 0.17 0.21 0.23 0.16 0.22 0.05 0.09 0.22 0.14 0.12 0.29 0.46 0.64 0.70 0.85 1.08 1.07 0.38 0.12 0.03 0.05 0.10 0.15 0.29 0.37 0.18 0.06 0.01 0.00 0.00 0.01 0.05 0.01 0.00 0.00 0.00 0.00
1.01 0.58 1.03 1.01 0.56 0.76 0.50 0.24 0.25 0.26 0.14 0.03 0.06 0.06 0.04 0.04 0.06 0.26 0.26 0.36 0.53 0.69 0.89 1.02 0.89 0.41 0.24 0.13 0.21 0.24 0.05 0.08 0.17 0.12 0.02 0.01 0.00 0.00 0.01 0.02 0.02 0.00 0.00 0.01 0.00